Vorticity
11 11 12 12 12 11 10 10 12 14 14 13 11 11 11 10 12 15 16 15 16 7
11 10 11 10 10 10 12 13 16 18 18 18 16 14 13 12 12 11 14 16 14 18
13 10 10 9 10 12 15 20 18 13 13 14 17 18 16 13 11 12 12 13 12 14
12 9 9 9 10 12 16 8 9 10 11 3 7 9 14 19 14 10 7 10 10 11
11 9 9 10 9 17 10 9 6 9 13 15 18 23 21 22 20 13 9 6 6 10
9 9 10 10 12 17 9 9 15 13 16 10 14 22 15 11 19 17 15 24 32 13
9 10 9 15 20 15 9 10 13 12 14 19 17 16 15 13 21 20 24 27 20 25
11 10 14 24 20 12 10 13 15 18 20 16 17 12 22 11 28 14 22 30 13 21
10 12 26 18 9 10 13 10 8 14 13 4 5 15 7 17 39 11 17 16 11 6
12 19 19 8 11 13 15 13 16 16 24 14 18 11 32 19 8 7 9 13 -2 4
16 20 13 9 14 10 9 15 15 10 8 18 4 7 5 3 4 29 19 4 7 11
20 17 11 13 17 9 10 3 3 13 17 -0 -3 28 29 17 15 6 5 -1 13 7
22 13 12 4 7 17 11 6 10 11 13 4 14 33 1 17 3 10 5 4 8 10
21 8 7 5 10 11 13 15 13 12 14 11 11 4 15 2 1 7 9 12 9 5
Height
3073 3069 3066 3063 3059 3057 3054 3052 3050 3047 3044 3041 3039 3037 3036 3035 3035 3036 3037 3037 3038 3042
3066 3063 3059 3055 3051 3048 3045 3042 3040 3037 3034 3031 3028 3026 3025 3025 3026 3026 3027 3029 3030 3032
3060 3056 3052 3048 3044 3040 3037 3034 3030 3028 3025 3023 3020 3018 3016 3015 3017 3017 3019 3019 3021 3023
3053 3049 3046 3041 3037 3034 3031 3026 3023 3021 3018 3016 3013 3010 3008 3007 3008 3008 3010 3011 3013 3015
3047 3043 3039 3035 3030 3027 3025 3021 3018 3014 3011 3007 3005 3002 3000 2999 2999 3000 3001 3003 3005 3007
3040 3036 3033 3028 3024 3021 3019 3016 3011 3007 3004 3001 2998 2995 2994 2992 2992 2992 2993 2993 2995 2999
3033 3030 3025 3021 3018 3015 3014 3010 3006 3002 2998 2995 2993 2990 2989 2988 2986 2986 2987 2987 2988 2991
3027 3023 3019 3015 3012 3010 3008 3005 3001 2998 2994 2992 2990 2988 2985 2984 2982 2983 2983 2985 2986 2988
3022 3018 3014 3011 3008 3007 3004 3001 2998 2994 2992 2990 2988 2986 2984 2983 2981 2982 2983 2985 2986 2988
3017 3013 3010 3008 3006 3004 3000 2998 2995 2992 2989 2989 2988 2988 2985 2983 2983 2983 2984 2985 2986 2987
3013 3009 3007 3005 3003 3001 2999 2996 2994 2991 2990 2990 2989 2988 2988 2985 2984 2983 2984 2986 2987 2986
3008 3006 3004 3003 3000 2998 2997 2996 2995 2991 2991 2990 2989 2987 2986 2987 2987 2987 2987 2987 2987 2985
3005 3004 3003 3001 2998 2997 2996 2995 2994 2991 2990 2990 2989 2988 2988 2989 2989 2988 2988 2988 2987 2986
3002 3001 3001 2999 2997 2996 2995 2994 2993 2991 2990 2990 2990 2990 2990 2990 2989 2988 2988 2987 2986 2986